Weather History for KBCB - June, 2013

Change the Weather History Date:

Tuesday, June 18, 2013

  Actual Average Record
Temperature  
Mean Temperature 68 °F 69 °F  
Max Temperature 72 °F 80 °F 88 °F (2007)
Min Temperature 63 °F 57 °F 39 °F (1974)
Degree Days  
Heating Degree Days 0 1  
Month to date heating degree days 7 33  
Since 1 June heating degree days 7 33  
Since 1 July heating degree days 5352 5441  
Cooling Degree Days 3 4  
Month to date cooling degree days 48 55  
Year to date cooling degree days 79 84  
Since 1 June cooling degree days 48 55  
Growing Degree Days 18 (Base 50)    
Moisture  
Dew Point 67 °F    
Average Humidity 92    
Maximum Humidity 100    
Minimum Humidity 84    
Precipitation  
Precipitation 0.38 in 0.12 in 1.30 in (1973)
Month to date precipitation 5.62 2.55  
Year to date precipitation 27.49 19.89  
Snow  
Snow 0.00 in - - ()
Month to date snowfall T  
Since 1 June snowfall T  
Since 1 July snowfall 27.9  
Snow Depth 0.00 in    
Sea Level Pressure  
Sea Level Pressure 29.96 in    
Wind  
Wind Speed 3 mph (NNW)    
Max Wind Speed 12 mph    
Max Gust Speed -    
Visibility 8 miles    
Events Rain    
T = Trace of Precipitation, MM = Missing Value Source: NWS Daily Summary

Daily Weather History Graph

Daily Weather History Graph

Search for Another Location

Airport or City:

Trip Planner

Search our weather history database for the weather conditions in past years. The results will help you decide how hot, cold, wet, or windy it might be!

Date:

Astronomy

Jun. 18, 2013 Rise Set
Actual Time 6:01 AM EDT 8:44 PM EDT
Civil Twilight 5:30 AM EDT 9:15 PM EDT
Nautical Twilight 4:51 AM EDT 9:54 PM EDT
Astronomical Twilight 4:07 AM EDT 10:37 PM EDT
Moon 3:32 PM EDT (6/18) 2:02 AM EDT (6/18)
Length of Visible Light 15h 45m
Length of Day
14h 43m
Waxing Gibbous, 70% of the Moon is Illuminated
Jun 18
Waxing Gibbous
Jun 23
Full
Jun 30
Last Quarter
Jul 8
New
Jul 15
First Quarter

Hourly Weather History & Observations

Time (EDT) Temp. Dew Point Humidity Pressure Visibility Wind Dir Wind Speed Gust Speed Precip Events Conditions
12:15 AM 66.2 °F 66.2 °F 100% 30.06 in 10.0 mi Calm Calm - N/A   Clear
12:35 AM 66.2 °F 66.2 °F 100% 30.04 in 10.0 mi Calm Calm - N/A   Clear
12:55 AM 66.2 °F 66.2 °F 100% 30.04 in 10.0 mi Calm Calm - N/A   Scattered Clouds
1:15 AM 68.0 °F 66.2 °F 94% 30.02 in 10.0 mi Calm Calm - N/A   Scattered Clouds
1:35 AM 68.0 °F 66.2 °F 94% 30.02 in 10.0 mi Calm Calm - N/A   Mostly Cloudy
1:55 AM 66.2 °F 66.2 °F 100% 30.01 in 10.0 mi Calm Calm - N/A   Mostly Cloudy
2:15 AM 66.2 °F 66.2 °F 100% 30.00 in 10.0 mi Calm Calm - N/A   Clear
2:35 AM 66.2 °F 66.2 °F 100% 29.99 in 10.0 mi Calm Calm - N/A   Clear
2:55 AM 66.2 °F 66.2 °F 100% 29.98 in 7.0 mi Calm Calm - N/A   Clear
3:15 AM 66.2 °F 66.2 °F 100% 29.97 in 7.0 mi Calm Calm - N/A   Clear
3:35 AM 66.2 °F 66.2 °F 100% 29.97 in 10.0 mi Calm Calm - N/A   Clear
3:55 AM 66.2 °F 66.2 °F 100% 29.96 in 10.0 mi Calm Calm - N/A   Light Drizzle
4:15 AM 66.2 °F 66.2 °F 100% 29.96 in 10.0 mi Calm Calm - N/A   Scattered Clouds
4:35 AM 66.2 °F 66.2 °F 100% 29.96 in 10.0 mi Calm Calm - N/A   Mostly Cloudy
4:55 AM 66.2 °F 66.2 °F 100% 29.96 in 7.0 mi Calm Calm - N/A   Overcast
5:15 AM 66.2 °F 66.2 °F 100% 29.97 in 7.0 mi Calm Calm - N/A   Mostly Cloudy
5:35 AM 66.2 °F 66.2 °F 100% 29.97 in 7.0 mi Calm Calm - N/A   Overcast
5:55 AM 66.2 °F 66.2 °F 100% 29.97 in 7.0 mi Calm Calm - N/A   Overcast
6:15 AM 66.2 °F 66.2 °F 100% 29.97 in 7.0 mi Calm Calm - N/A   Overcast
6:35 AM 66.2 °F 66.2 °F 100% 29.97 in 5.0 mi Calm Calm - N/A   Scattered Clouds
6:55 AM 66.2 °F 66.2 °F 100% 29.97 in 5.0 mi Calm Calm - N/A   Clear
7:15 AM 66.2 °F 66.2 °F 100% 29.96 in 4.0 mi Calm Calm - N/A   Scattered Clouds
7:35 AM 68.0 °F 68.0 °F 100% 29.97 in 4.0 mi Calm Calm - N/A Rain Rain
7:55 AM 68.0 °F 68.0 °F 100% 29.97 in 2.5 mi Calm Calm - 0.01 in Rain Rain
8:15 AM 68.0 °F 68.0 °F 100% 29.97 in 1.8 mi Calm Calm - 0.05 in Rain Rain
8:35 AM 68.0 °F 68.0 °F 100% 29.97 in 4.0 mi Calm Calm - 0.08 in Rain Rain
8:55 AM 69.8 °F 69.8 °F 100% 29.96 in 3.0 mi Calm Calm - 0.09 in Rain Light Rain
9:15 AM 68.0 °F 68.0 °F 100% 29.96 in 3.0 mi Calm Calm - 0.03 in Rain Light Rain
9:35 AM 68.0 °F 68.0 °F 100% 29.97 in 1.8 mi West 3.5 mph - 0.15 in Rain Heavy Rain
9:55 AM 69.8 °F 69.8 °F 100% 29.96 in 4.0 mi Calm Calm - 0.19 in Rain Light Rain
10:15 AM 69.8 °F 69.8 °F 100% 29.96 in 5.0 mi Calm Calm - 0.01 in Rain Rain
10:35 AM 69.8 °F 69.8 °F 100% 29.96 in 5.0 mi Calm Calm - 0.02 in Rain Light Rain
10:55 AM 69.8 °F 69.8 °F 100% 29.96 in 5.0 mi WSW 4.6 mph - 0.03 in Rain Light Rain
11:15 AM 69.8 °F 69.8 °F 100% 29.96 in 4.0 mi WNW 4.6 mph - 0.01 in Rain Rain
11:35 AM 69.8 °F 69.8 °F 100% 29.96 in 5.0 mi West 3.5 mph - 0.02 in Rain Light Rain
11:55 AM 69.8 °F 69.8 °F 100% 29.96 in 7.0 mi WNW 3.5 mph - 0.03 in Rain Light Rain
12:15 PM 71.6 °F 71.6 °F 100% 29.95 in 7.0 mi West 3.5 mph - N/A Rain Light Rain
12:35 PM 71.6 °F 71.6 °F 100% 29.95 in 10.0 mi Calm Calm - 0.01 in Rain Light Rain
12:55 PM 71.6 °F 71.6 °F 100% 29.95 in 10.0 mi West 3.5 mph - 0.01 in   Light Drizzle
1:15 PM 71.6 °F 71.6 °F 100% 29.94 in 10.0 mi West 3.5 mph - N/A   Scattered Clouds
1:35 PM 73.4 °F 71.6 °F 94% 29.93 in 10.0 mi West 4.6 mph - N/A   Light Drizzle
1:55 PM 73.4 °F 71.6 °F 94% 29.93 in 10.0 mi West 6.9 mph - N/A   Scattered Clouds
2:15 PM 73.4 °F 69.8 °F 88% 29.92 in 10.0 mi WNW 4.6 mph - N/A   Mostly Cloudy
2:35 PM 73.4 °F 69.8 °F 88% 29.92 in 10.0 mi WNW 5.8 mph - N/A   Mostly Cloudy
2:55 PM 73.4 °F 69.8 °F 88% 29.92 in 10.0 mi WNW 5.8 mph - N/A   Scattered Clouds
3:15 PM 73.4 °F 69.8 °F 88% 29.93 in 7.0 mi NNW 5.8 mph - N/A Rain Rain
3:35 PM 69.8 °F 69.8 °F 100% 29.93 in 7.0 mi NNE 5.8 mph - 0.02 in Rain Light Rain
3:55 PM 69.8 °F 68.0 °F 94% 29.93 in 10.0 mi NNE 9.2 mph - 0.02 in   Light Drizzle
4:15 PM 69.8 °F 68.0 °F 94% 29.93 in 10.0 mi North 9.2 mph - 0.01 in   Overcast
4:35 PM 69.8 °F 68.0 °F 94% 29.93 in 10.0 mi North 4.6 mph - 0.01 in   Overcast
4:55 PM 71.6 °F 68.0 °F 88% 29.93 in 10.0 mi North 11.5 mph - 0.01 in   Overcast
5:15 PM 71.6 °F 66.2 °F 83% 29.93 in 10.0 mi North 9.2 mph - N/A   Overcast
5:35 PM 71.6 °F 66.2 °F 83% 29.93 in 10.0 mi NNE 5.8 mph - N/A   Mostly Cloudy
5:55 PM 71.6 °F 66.2 °F 83% 29.93 in 10.0 mi ENE 6.9 mph - N/A   Overcast
6:15 PM 71.6 °F 68.0 °F 88% 29.92 in 10.0 mi ENE 3.5 mph - N/A   Mostly Cloudy
6:35 PM 71.6 °F 66.2 °F 83% 29.92 in 10.0 mi East 6.9 mph - N/A   Mostly Cloudy
6:55 PM 71.6 °F 66.2 °F 83% 29.92 in 10.0 mi NE 4.6 mph - N/A   Scattered Clouds
7:15 PM 71.6 °F 66.2 °F 83% 29.93 in 10.0 mi Calm Calm - N/A   Scattered Clouds
7:35 PM 71.6 °F 66.2 °F 83% 29.94 in 10.0 mi Calm Calm - N/A   Mostly Cloudy
7:55 PM 69.8 °F 66.2 °F 88% 29.94 in 10.0 mi Calm Calm - N/A   Mostly Cloudy
8:15 PM 69.8 °F 66.2 °F 88% 29.95 in 10.0 mi Calm Calm - N/A   Mostly Cloudy
8:35 PM 69.8 °F 66.2 °F 88% 29.96 in 10.0 mi NNE 3.5 mph - N/A   Mostly Cloudy
8:55 PM 69.8 °F 66.2 °F 88% 29.97 in 10.0 mi ENE 3.5 mph - N/A   Scattered Clouds
9:15 PM 68.0 °F 66.2 °F 94% 29.97 in 10.0 mi Calm Calm - N/A   Clear
9:35 PM 66.2 °F 66.2 °F 100% 29.98 in 10.0 mi Calm Calm - N/A   Clear
9:55 PM 66.2 °F 66.2 °F 100% 29.99 in 10.0 mi Calm Calm - N/A   Scattered Clouds
10:15 PM 64.4 °F 64.4 °F 100% 30.00 in 7.0 mi West 3.5 mph - N/A   Scattered Clouds
10:35 PM 64.4 °F 64.4 °F 100% 30.01 in 5.0 mi Calm Calm - N/A   Clear
10:55 PM 62.6 °F 62.6 °F 100% 30.02 in 5.0 mi Calm Calm - N/A   Clear
11:15 PM 62.6 °F 62.6 °F 100% 30.02 in 5.0 mi Calm Calm - N/A   Clear
11:35 PM 62.6 °F 62.6 °F 100% 30.02 in 5.0 mi Calm Calm - N/A   Clear
11:55 PM 62.6 °F 62.6 °F 100% 30.02 in 3.0 mi Calm Calm - N/A   Clear